• In Slovakia
  • List of Countries
  • For 7 days
  • Water Temperature
  • Satellite Maps
  • Weather Map
  • Weather Widgets
  • user-avatar
    Login

    Hourly Weather Vocharma

    Today, 21 October, Sunday

    Time Temperature Precipitation Wind Pressure Humidity
    00:00 +2°C° 0 mm 3 mps 747 mmHg 94%
    01:00 +2°C° 0 mm 2 mps 748 mmHg 95%
    02:00 +2°C° 0 mm 2 mps 748 mmHg 95%
    03:00 +1°C° 0 mm 2 mps 749 mmHg 95%
    04:00 +1°C° 0 mm 2 mps 749 mmHg 96%
    05:00 +1°C° 0 mm 2 mps 749 mmHg 96%
    06:00 -1°C° 0 mm 2 mps 750 mmHg 96%
    07:00 +1°C° 0 mm 2 mps 750 mmHg 91%
    08:00 +2°C° 0 mm 2 mps 751 mmHg 86%
    09:00 +3°C° 0 mm 2 mps 751 mmHg 82%
    10:00 +3°C° 0 mm 2 mps 751 mmHg 76%
    11:00 +4°C° 0 mm 2 mps 752 mmHg 71%
    12:00 +5°C° 0 mm 2 mps 752 mmHg 65%
    13:00 +5°C° 0 mm 2 mps 752 mmHg 65%
    14:00 +5°C° 0 mm 2 mps 752 mmHg 66%
    15:00 +5°C° 0 mm 2 mps 752 mmHg 66%
    16:00 +5°C° 0 mm 1 mps 753 mmHg 70%
    17:00 +4°C° 0 mm 1 mps 753 mmHg 75%
    18:00 +3°C° 0 mm 1 mps 753 mmHg 80%
    19:00 +3°C° 0 mm 1 mps 753 mmHg 82%
    20:00 +2°C° 0 mm 1 mps 753 mmHg 83%
    21:00 +2°C° 0 mm 1 mps 754 mmHg 85%
    22:00 +2°C° 0 mm 1 mps 754 mmHg 86%
    23:00 +1°C° 0 mm 1 mps 754 mmHg 88%

    Tomorrow, 22 October, Monday

    Time Temperature Precipitation Wind Pressure Humidity
    00:00 0°C° 0 mm 0 mps 754 mmHg 89%
    01:00 +1°C° 0 mm 1 mps 754 mmHg 89%
    02:00 +1°C° 0 mm 1 mps 754 mmHg 89%
    03:00 +1°C° 0 mm 1 mps 754 mmHg 89%
    04:00 +1°C° 0 mm 1 mps 754 mmHg 89%
    05:00 -1°C° 0 mm 2 mps 754 mmHg 90%
    06:00 -1°C° 0 mm 2 mps 753 mmHg 90%
    07:00 +1°C° 0 mm 2 mps 753 mmHg 85%
    08:00 +1°C° 0 mm 3 mps 753 mmHg 81%
    09:00 +2°C° 0 mm 3 mps 753 mmHg 76%
    10:00 +3°C° 0 mm 4 mps 753 mmHg 73%
    11:00 +4°C° 0 mm 4 mps 752 mmHg 70%
    12:00 +5°C° 0 mm 4 mps 752 mmHg 66%
    13:00 +5°C° 0 mm 4 mps 751 mmHg 68%
    14:00 +5°C° 0 mm 4 mps 751 mmHg 70%
    15:00 +5°C° 0 mm 4 mps 750 mmHg 71%
    16:00 +3°C° 0 mm 5 mps 750 mmHg 75%
    17:00 +3°C° 0 mm 5 mps 749 mmHg 78%
    18:00 +2°C° 0 mm 5 mps 749 mmHg 81%
    19:00 +2°C° 0 mm 5 mps 748 mmHg 81%
    20:00 +2°C° 0 mm 6 mps 748 mmHg 82%
    21:00 +2°C° 0 mm 6 mps 747 mmHg 82%
    22:00 +2°C° 0 mm 6 mps 747 mmHg 82%
    23:00 +2°C° 0 mm 6 mps 746 mmHg 83%

    Day after tomorrow, 23 October, Tuesday

    Time Temperature Precipitation Wind Pressure Humidity
    00:00 +2°C° 0 mm 6 mps 746 mmHg 83%
    01:00 +1°C° 0 mm 5 mps 745 mmHg 86%
    02:00 +1°C° 0 mm 5 mps 745 mmHg 89%
    03:00 +1°C° 0 mm 5 mps 745 mmHg 91%
    04:00 +1°C° 0 mm 5 mps 744 mmHg 92%
    05:00 +2°C° 0 mm 5 mps 744 mmHg 93%
    06:00 +2°C° 0 mm 6 mps 743 mmHg 94%
    07:00 +3°C° 0 mm 6 mps 743 mmHg 92%
    08:00 +4°C° 0 mm 6 mps 743 mmHg 90%
    09:00 +5°C° 0 mm 6 mps 742 mmHg 89%
    10:00 +5°C° 0.2 mm 6 mps 742 mmHg 87%
    11:00 +5°C° 0.2 mm 6 mps 741 mmHg 85%
    12:00 +7°C° 0.2 mm 6 mps 741 mmHg 83%
    13:00 +5°C° 0.7 mm 7 mps 740 mmHg 85%
    14:00 +5°C° 0.7 mm 7 mps 740 mmHg 86%
    15:00 +5°C° 0.7 mm 7 mps 739 mmHg 87%
    16:00 +5°C° 0.6 mm 7 mps 739 mmHg 88%
    17:00 +5°C° 0.6 mm 6 mps 739 mmHg 88%
    18:00 +5°C° 0.6 mm 6 mps 738 mmHg 88%
    19:00 +5°C° 1 mm 6 mps 738 mmHg 89%
    20:00 +5°C° 1 mm 6 mps 737 mmHg 89%
    21:00 +4°C° 1 mm 6 mps 737 mmHg 90%
    22:00 +5°C° 0.2 mm 5 mps 736 mmHg 91%
    23:00 +6°C° 0.2 mm 4 mps 736 mmHg 92%

    24 October, Wednesday

    Time Temperature Precipitation Wind Pressure Humidity
    00:00 +6°C° 0.2 mm 4 mps 735 mmHg 92%
    01:00 +7°C° 0.6 mm 3 mps 735 mmHg 93%
    02:00 +7°C° 0.6 mm 3 mps 734 mmHg 94%
    03:00 +7°C° 0.6 mm 3 mps 734 mmHg 96%
    04:00 +5°C° 0.1 mm 3 mps 734 mmHg 95%
    05:00 +5°C° 0.1 mm 3 mps 734 mmHg 95%
    06:00 +5°C° 0.1 mm 3 mps 734 mmHg 95%
    07:00 +5°C° 0 mm 3 mps 734 mmHg 91%
    08:00 +5°C° 0 mm 4 mps 735 mmHg 88%
    09:00 +5°C° 0 mm 4 mps 735 mmHg 84%
    10:00 +6°C° 0 mm 4 mps 735 mmHg 79%
    11:00 +6°C° 0 mm 5 mps 735 mmHg 74%
    12:00 +7°C° 0 mm 5 mps 735 mmHg 69%
    13:00 +7°C° 0 mm 4 mps 735 mmHg 69%
    14:00 +7°C° 0 mm 4 mps 735 mmHg 70%
    15:00 +7°C° 0 mm 4 mps 735 mmHg 71%
    16:00 +6°C° 0 mm 4 mps 735 mmHg 74%
    17:00 +6°C° 0 mm 4 mps 735 mmHg 76%
    18:00 +6°C° 0 mm 4 mps 736 mmHg 79%
    19:00 +5°C° 0 mm 4 mps 736 mmHg 80%
    20:00 +5°C° 0 mm 4 mps 736 mmHg 80%
    21:00 +5°C° 0 mm 4 mps 736 mmHg 81%
    22:00 +5°C° 0 mm 4 mps 736 mmHg 81%
    23:00 +5°C° 0 mm 3 mps 736 mmHg 82%

    25 October, Thursday

    Time Temperature Precipitation Wind Pressure Humidity
    00:00 +5°C° 0 mm 3 mps 736 mmHg 82%
    01:00 +5°C° 0 mm 4 mps 736 mmHg 82%
    02:00 +5°C° 0 mm 4 mps 736 mmHg 82%
    03:00 +4°C° 0 mm 4 mps 736 mmHg 83%
    04:00 +5°C° 0 mm 4 mps 736 mmHg 84%
    05:00 +5°C° 0 mm 5 mps 735 mmHg 86%
    06:00 +5°C° 0 mm 5 mps 735 mmHg 87%
    07:00 +5°C° 0.1 mm 6 mps 735 mmHg 87%
    08:00 +5°C° 0.1 mm 6 mps 735 mmHg 86%
    09:00 +6°C° 0.1 mm 7 mps 735 mmHg 86%
    10:00 +7°C° 0.7 mm 6 mps 734 mmHg 87%
    11:00 +8°C° 0.7 mm 6 mps 734 mmHg 88%
    12:00 +8°C° 0.7 mm 6 mps 734 mmHg 89%
    13:00 +8°C° 0.9 mm 6 mps 733 mmHg 88%
    14:00 +8°C° 0.9 mm 6 mps 733 mmHg 88%
    15:00 +8°C° 0.9 mm 7 mps 732 mmHg 87%
    16:00 +8°C° 0.1 mm 6 mps 732 mmHg 83%
    17:00 +8°C° 0.1 mm 6 mps 732 mmHg 79%
    18:00 +8°C° 0.1 mm 6 mps 731 mmHg 75%
    19:00 +9°C° 0 mm 6 mps 731 mmHg 74%
    20:00 +9°C° 0 mm 6 mps 730 mmHg 73%
    21:00 +9°C° 0 mm 6 mps 730 mmHg 72%
    22:00 +9°C° 0 mm 6 mps 729 mmHg 70%
    23:00 +9°C° 0 mm 6 mps 729 mmHg 68%

    26 October, Friday

    Time Temperature Precipitation Wind Pressure Humidity
    00:00 +10°C° 0 mm 6 mps 728 mmHg 66%
    01:00 +9°C° 0.2 mm 6 mps 728 mmHg 69%
    02:00 +9°C° 0.2 mm 6 mps 728 mmHg 71%
    03:00 +9°C° 0.2 mm 6 mps 728 mmHg 73%
    04:00 +8°C° 0.5 mm 6 mps 728 mmHg 77%
    05:00 +8°C° 0.5 mm 5 mps 728 mmHg 81%
    06:00 +8°C° 0.5 mm 5 mps 728 mmHg 85%
    07:00 +7°C° 0.6 mm 5 mps 728 mmHg 83%
    08:00 +6°C° 0.6 mm 5 mps 728 mmHg 82%
    09:00 +5°C° 0.6 mm 5 mps 729 mmHg 80%
    10:00 +6°C° 0.1 mm 5 mps 729 mmHg 77%
    11:00 +5°C° 0.1 mm 6 mps 729 mmHg 74%
    12:00 +5°C° 0.1 mm 7 mps 729 mmHg 71%
    13:00 +5°C° 0 mm 7 mps 730 mmHg 70%
    14:00 +5°C° 0 mm 6 mps 730 mmHg 70%
    15:00 +5°C° 0 mm 6 mps 731 mmHg 69%
    16:00 +4°C° 0 mm 6 mps 731 mmHg 70%
    17:00 +4°C° 0 mm 6 mps 732 mmHg 71%
    18:00 +3°C° 0 mm 6 mps 732 mmHg 72%
    19:00 +3°C° 0 mm 6 mps 732 mmHg 74%
    20:00 +2°C° 0 mm 5 mps 732 mmHg 76%
    21:00 +2°C° 0 mm 5 mps 733 mmHg 78%
    22:00 +2°C° 0 mm 5 mps 733 mmHg 79%
    23:00 +2°C° 0 mm 5 mps 733 mmHg 81%
    Show more